Regional Weather Roundup
Issued by NWS

Home | Current Version | Previous Version | Text Only | Print | Product List | Glossary On
Versions: 1 2 3 4 5 6 7 8 9 10 11 12 13 14 15 16 17 18 19 20 21 22 23 24 25 26 27 28 29 30 31 32 33 34 35 36 37 38 39 40 41 42 43 44 45 46 47 48 49 50
000
ASUS44 KBMX 240610
RWRAL

ALABAMA REGIONAL WEATHER ROUNDUP
NATIONAL WEATHER SERVICE BIRMINGHAM AL
100 AM CDT FRI MAR 24 2017

NOTE: "FAIR" INDICATES FEW OR NO CLOUDS BELOW 12,000 FEET
WITH NO SIGNIFICANT WEATHER AND/OR OBSTRUCTIONS TO VISIBILITY.

THE REMARK "TC" DENOTES TEMPERATURE IN DEGREES CELSIUS.

ALZ001>011-014-016>018-020-240700-
NORTH ALABAMA

CITY           SKY/WX    TMP DP  RH WIND       PRES   REMARKS
MUSCLE SHOALS  CLEAR     63  51  65 S13G24    30.24S
6HR MIN TEMP:  63; 6HR MAX TEMP:  72;

HUNTSVILLE     CLEAR     62  49  62 SE17      30.28S
6HR MIN TEMP:  61; 6HR MAX TEMP:  70;

DECATUR        CLEAR     60  50  69 SE16      30.28S
6HR MIN TEMP:  60; 6HR MAX TEMP:  70;

HALEYVILLE     FAIR      61  52  72 S13G24    30.27F
6HR MIN TEMP:  61; 6HR MAX TEMP:  72;

GADSDEN        CLOUDY    62  48  60 SE5       30.34F
6HR MIN TEMP:  61; 6HR MAX TEMP:  68;

$$

ALZ012-013-022-023-030>036-040>044-240700-
WEST CENTRAL ALABAMA

CITY           SKY/WX    TMP DP  RH WIND       PRES   REMARKS
TUSCALOOSA     CLOUDY    65  53  65 SE8G18    30.28F
6HR MIN TEMP:  64; 6HR MAX TEMP:  76;

$$

ALZ015-024>027-033>036-040>044-240700-
CENTRAL ALABAMA

CITY           SKY/WX    TMP DP  RH WIND       PRES   REMARKS
BIRMINGHAM     NOT AVBL
MONTGOMERY     CLOUDY    64  51  62 E8        30.32F
6HR MIN TEMP:  63; 6HR MAX TEMP:  69;

SHELBY CO ARPT CLOUDY    62  52  69 SE8       30.31F
6HR MIN TEMP:  62; 6HR MAX TEMP:  70;

MAXWELL AFB    MOCLDY    65  53  66 E10       30.32S
6HR MIN TEMP:  64; 6HR MAX TEMP:  68;

GREENVILLE     CLOUDY    62  53  72 SE8       30.30F
6HR MIN TEMP:  62; 6HR MAX TEMP:  70;

$$

ALZ019-021-028-029-037-038-045>048-240700-
EAST CENTRAL ALABAMA

CITY           SKY/WX    TMP DP  RH WIND       PRES   REMARKS
ANNISTON       CLOUDY    62  48  60 E7        30.35S
6HR MIN TEMP:  62; 6HR MAX TEMP:  67;

ALEXANDER CITY CLOUDY    62  50  65 SE6       30.34F
6HR MIN TEMP:  62; 6HR MAX TEMP:  65;

AUBURN         CLOUDY    62  51  67 SE12G17   30.37F
6HR MIN TEMP:  61; 6HR MAX TEMP:  63;

$$

ALZ051>064-240700-
SOUTHWEST ALABAMA

CITY           SKY/WX    TMP DP  RH WIND       PRES   REMARKS
MOBILE         CLOUDY    69  63  81 SE16      30.26F
6HR MIN TEMP:  68; 6HR MAX TEMP:  70;

BROOKLEY FIELD CLOUDY    70  66  87 SE9       30.28S
6HR MIN TEMP:  69; 6HR MAX TEMP:  72;

EVERGREEN      CLOUDY    65  55  70 SE9       30.30F
6HR MIN TEMP:  65; 6HR MAX TEMP:  74; 6HR PCP: TRACE;

$$

ALZ049-050-065>069-240700-
SOUTHEAST ALABAMA

CITY           SKY/WX    TMP DP  RH WIND       PRES   REMARKS
DOTHAN         PTCLDY    61  54  77 SE10      30.38S
6HR MIN TEMP:  61; 6HR MAX TEMP:  67;

OZARK          MOCLDY    63  53  70 E10       30.34R
6HR MIN TEMP:  63; 6HR MAX TEMP:  68;

TROY           CLOUDY    63  54  72 SE12G20   30.34S
6HR MIN TEMP:  60; 6HR MAX TEMP:  67;

EUFAULA        CLOUDY    63  52  67 SE13      30.37R
6HR MIN TEMP:  63; 6HR MAX TEMP:  67;

$$



USA.gov is the U.S. government's official web portal to all federal, state and local government web resources and services.